Starlink 5553

operational
NORAD ID: 56333 Int'l Des: 2023-058 Owner: SPXS Country: US Constellation: starlink
LEOCIRCULARRETROGRADESSO

About Starlink 5553

Description loading...

Live Position

Loading 3D Globe...

Upcoming Passes

Altitude History

Altitude vs Time

uPlot chart will show altitude changes over time

Two-Line Element Set

1 56333U 23058S 26036.25439046 .00000238 00000-0 20741-4 0 9999
2 56333 97.6062 39.2054 0002319 88.0202 272.1291 15.05647883153314
Epoch: Feb 5, 2026 • Age: 8 hours

Current Status

Altitude 562.5 km
Velocity 7.58 km/s
Sub-Earth Point -32.14°S, 59.53°E
Launch Date Apr 27, 2023
Age 2.7 years
Type internet

Technical Details

Classification Payload
Mass 300.00 kg
Dry Mass 260.00 kg
Total Mass 300.00 kg
Length 0.20 m
Diameter 2.80 m
Span 9.00 m
Shape Box + pan
Manufacturer SPXS
Bus Type Starlink
Phase Status In Orbit
Owner/State SPXS/US

Large Constellations

Loading constellations...